RYR228 EGSS-EPSY

Flight info

Callsign RYR228
Flight time 1h 52m
Altitude 39000
Route CLN P44 RATLO M197 REDFA DCT TACHA DCT GARLU DCT ALUKA L29 GRUDA T720 IBINO
Aircraft B738/M-SDE2E3FGHIRWXY/LB1

Departure

Time 2026-05-07 10:52
Airport London Stansted Airport (EGSS)

Arrival

Time 2026-05-07 12:44
Airport Olsztyn-Mazury Airport (EPSY)
Time Latitude Longitude Altitude Speed Heading
2026-05-07 10:33 51.89187 0.26048 348 ft 0 kts 42°
2026-05-07 10:40 51.89178 0.26033 348 ft 4 kts 43°
2026-05-07 10:40 51.89163 0.26011 358 ft 4 kts 70°
2026-05-07 10:41 51.89164 0.25974 357 ft 3 kts 100°
2026-05-07 10:41 51.89165 0.25943 354 ft 4 kts 36°
2026-05-07 10:41 51.89153 0.25944 355 ft 4 kts 313°
2026-05-07 10:41 51.89140 0.25965 353 ft 0 kts 313°
2026-05-07 10:45 51.89144 0.25958 354 ft 3 kts 313°
2026-05-07 10:45 51.89182 0.25892 353 ft 11 kts 313°
2026-05-07 10:45 51.89237 0.25797 352 ft 11 kts 313°
2026-05-07 10:45 51.89289 0.25706 348 ft 11 kts 313°
2026-05-07 10:46 51.89340 0.25616 348 ft 11 kts 313°
2026-05-07 10:46 51.89393 0.25524 352 ft 13 kts 313°
2026-05-07 10:46 51.89399 0.25386 350 ft 16 kts 224°
2026-05-07 10:46 51.89310 0.25249 356 ft 19 kts 223°
2026-05-07 10:47 51.89222 0.25062 356 ft 23 kts 236°
2026-05-07 10:47 51.89105 0.24872 348 ft 25 kts 223°
2026-05-07 10:47 51.88973 0.24674 349 ft 25 kts 223°
2026-05-07 10:47 51.88848 0.24487 353 ft 23 kts 223°
2026-05-07 10:48 51.88730 0.24311 351 ft 24 kts 223°
2026-05-07 10:48 51.88602 0.24117 348 ft 27 kts 223°
2026-05-07 10:48 51.88455 0.23896 348 ft 30 kts 223°
2026-05-07 10:48 51.88308 0.23677 354 ft 28 kts 223°
2026-05-07 10:49 51.88168 0.23467 348 ft 28 kts 223°
2026-05-07 10:49 51.88020 0.23245 348 ft 29 kts 223°
2026-05-07 10:49 51.87878 0.23032 348 ft 27 kts 223°
2026-05-07 10:49 51.87746 0.22834 351 ft 25 kts 223°
2026-05-07 10:50 51.87632 0.22664 348 ft 20 kts 222°
2026-05-07 10:50 51.87572 0.22576 347 ft 9 kts 221°
2026-05-07 10:50 51.87526 0.22500 350 ft 12 kts 233°
2026-05-07 10:50 51.87546 0.22377 347 ft 15 kts 314°
2026-05-07 10:51 51.87647 0.22247 336 ft 18 kts 328°
2026-05-07 10:51 51.87697 0.22273 339 ft 9 kts 43°
2026-05-07 10:51 51.87920 0.22611 345 ft 82 kts 43°
2026-05-07 10:51 51.88517 0.23506 352 ft 149 kts 43°
2026-05-07 10:52 51.89344 0.24713 895 ft 161 kts 43°
2026-05-07 10:52 51.90157 0.25897 1862 ft 155 kts 45°
2026-05-07 10:52 51.90960 0.27201 2338 ft 178 kts 54°
2026-05-07 10:52 51.91586 0.29075 2791 ft 197 kts 74°
2026-05-07 10:53 51.91722 0.31289 3424 ft 202 kts 99°
2026-05-07 10:53 51.91219 0.33516 3826 ft 219 kts 121°
2026-05-07 10:53 51.90497 0.35721 4622 ft 223 kts 118°
2026-05-07 10:53 51.89808 0.37978 5461 ft 225 kts 117°
2026-05-07 10:54 51.89397 0.40531 5880 ft 254 kts 89°
2026-05-07 10:54 51.89709 0.43446 6471 ft 269 kts 81°
2026-05-07 10:54 51.90107 0.46444 7232 ft 275 kts 80°
2026-05-07 10:54 51.90499 0.49444 8085 ft 278 kts 79°
2026-05-07 10:55 51.90891 0.52535 8956 ft 283 kts 79°
2026-05-07 10:55 51.91278 0.55678 9882 ft 286 kts 78°
2026-05-07 10:55 51.91663 0.58882 10583 ft 298 kts 78°
2026-05-07 10:55 51.92069 0.62330 10819 ft 324 kts 79°
2026-05-07 10:56 51.92491 0.65986 11428 ft 335 kts 79°
2026-05-07 10:56 51.92917 0.69734 12252 ft 340 kts 79°
2026-05-07 10:56 51.93344 0.73531 13137 ft 345 kts 79°
2026-05-07 10:56 51.93774 0.77379 14031 ft 349 kts 79°
2026-05-07 10:57 51.94208 0.81285 14816 ft 356 kts 79°
2026-05-07 10:57 51.94646 0.85255 15687 ft 359 kts 80°
2026-05-07 10:57 51.95086 0.89255 16536 ft 364 kts 80°
2026-05-07 10:57 51.95533 0.93328 17316 ft 370 kts 80°
2026-05-07 10:58 51.95984 0.97456 18179 ft 373 kts 80°
2026-05-07 10:58 51.96438 1.01628 18904 ft 379 kts 80°
2026-05-07 10:58 51.96897 1.05859 19614 ft 383 kts 80°
2026-05-07 10:58 51.97357 1.10120 20421 ft 384 kts 80°
2026-05-07 10:59 51.97820 1.14411 21125 ft 389 kts 80°
2026-05-07 10:59 51.98285 1.18750 21870 ft 392 kts 80°
2026-05-07 10:59 51.98753 1.23123 22589 ft 396 kts 81°
2026-05-07 10:59 51.99224 1.27542 23274 ft 400 kts 81°
2026-05-07 11:00 51.99698 1.32002 23922 ft 403 kts 81°
2026-05-07 11:00 52.00174 1.36500 24497 ft 405 kts 81°
2026-05-07 11:00 52.00649 1.41011 25121 ft 407 kts 81°
2026-05-07 11:00 52.01124 1.45542 25730 ft 408 kts 81°
2026-05-07 11:01 52.01600 1.50094 26283 ft 411 kts 80°
2026-05-07 11:01 52.02079 1.54689 26783 ft 415 kts 80°
2026-05-07 11:01 52.02559 1.59316 27331 ft 417 kts 80°
2026-05-07 11:01 52.03040 1.63971 27864 ft 419 kts 80°
2026-05-07 11:02 52.03521 1.68644 28410 ft 420 kts 80°
2026-05-07 11:02 52.04001 1.73328 28987 ft 421 kts 80°
2026-05-07 11:02 52.04481 1.78033 29481 ft 423 kts 80°
2026-05-07 11:02 52.04962 1.82769 29914 ft 427 kts 80°
2026-05-07 11:03 52.05445 1.87544 30314 ft 430 kts 80°
2026-05-07 11:03 52.05930 1.92348 30668 ft 432 kts 80°
2026-05-07 11:03 52.06408 1.97115 31011 ft 435 kts 80°
2026-05-07 11:03 52.06895 2.01987 31304 ft 439 kts 80°
2026-05-07 11:04 52.07386 2.06905 31597 ft 442 kts 80°
2026-05-07 11:04 52.07876 2.11849 31925 ft 444 kts 81°
2026-05-07 11:04 52.08365 2.16814 32324 ft 445 kts 81°
2026-05-07 11:04 52.08851 2.21772 32782 ft 443 kts 81°
2026-05-07 11:05 52.09333 2.26709 33287 ft 441 kts 81°
2026-05-07 11:05 52.09811 2.31633 33707 ft 441 kts 81°
2026-05-07 11:05 52.10290 2.36566 34126 ft 441 kts 81°
2026-05-07 11:05 52.10765 2.41488 34444 ft 442 kts 81°
2026-05-07 11:06 52.11241 2.46436 34708 ft 444 kts 81°
2026-05-07 11:06 52.11842 2.51380 34869 ft 448 kts 75°
2026-05-07 11:06 52.12725 2.56256 35101 ft 450 kts 72°
2026-05-07 11:06 52.13684 2.61099 35459 ft 449 kts 72°
2026-05-07 11:07 52.14656 2.65931 35786 ft 449 kts 72°
2026-05-07 11:07 52.15620 2.70788 36015 ft 452 kts 72°
2026-05-07 11:07 52.16569 2.75670 36293 ft 453 kts 72°
2026-05-07 11:07 52.17506 2.80575 36582 ft 454 kts 73°
2026-05-07 11:08 52.18433 2.85488 36897 ft 454 kts 73°
2026-05-07 11:08 52.19356 2.90413 37137 ft 456 kts 73°
2026-05-07 11:08 52.20280 2.95356 37435 ft 456 kts 73°
2026-05-07 11:08 52.20890 2.98630 37619 ft 456 kts 73°
2026-05-07 11:09 52.21812 3.03581 37880 ft 457 kts 73°
2026-05-07 11:09 52.22734 3.08544 38174 ft 457 kts 73°
2026-05-07 11:09 52.23655 3.13508 38469 ft 457 kts 73°
2026-05-07 11:09 52.24575 3.18480 38759 ft 458 kts 73°
2026-05-07 11:10 52.25762 3.25078 39047 ft 457 kts 77°
2026-05-07 11:10 52.26230 3.28509 39091 ft 460 kts 79°
2026-05-07 11:10 52.27329 3.38854 39093 ft 463 kts 81°
2026-05-07 11:11 52.28328 3.49201 39084 ft 458 kts 81°
2026-05-07 11:11 52.29349 3.59429 39098 ft 456 kts 81°
2026-05-07 11:12 52.30396 3.69636 39099 ft 455 kts 81°
2026-05-07 11:12 52.31445 3.79843 39097 ft 455 kts 81°
2026-05-07 11:13 52.32481 3.89988 39096 ft 456 kts 81°
2026-05-07 11:13 52.33514 4.00215 39090 ft 456 kts 81°
2026-05-07 11:14 52.34539 4.10459 39090 ft 457 kts 81°
2026-05-07 11:14 52.35557 4.20732 39086 ft 458 kts 81°
2026-05-07 11:15 52.36568 4.31030 39089 ft 459 kts 81°
2026-05-07 11:15 52.37573 4.41364 39080 ft 460 kts 81°
2026-05-07 11:16 52.38570 4.51713 39080 ft 461 kts 82°
2026-05-07 11:16 52.39559 4.62081 39071 ft 461 kts 82°
2026-05-07 11:17 52.40540 4.72459 39077 ft 461 kts 82°
2026-05-07 11:17 52.41513 4.82846 39074 ft 461 kts 82°
2026-05-07 11:18 52.42475 4.93230 39079 ft 461 kts 82°
2026-05-07 11:18 52.43428 5.03617 39066 ft 461 kts 82°
2026-05-07 11:19 52.44371 5.13991 39072 ft 460 kts 82°
2026-05-07 11:19 52.45304 5.24367 39076 ft 460 kts 82°
2026-05-07 11:20 52.46228 5.34751 39079 ft 460 kts 82°
2026-05-07 11:20 52.47125 5.44932 39078 ft 460 kts 82°
2026-05-07 11:21 52.48032 5.55326 39073 ft 460 kts 82°
2026-05-07 11:21 52.48928 5.65710 39071 ft 460 kts 82°
2026-05-07 11:22 52.49817 5.76112 39064 ft 461 kts 83°
2026-05-07 11:22 52.50696 5.86524 39058 ft 461 kts 83°
2026-05-07 11:23 52.51567 5.96944 39056 ft 461 kts 83°
2026-05-07 11:23 52.52423 6.07303 39048 ft 461 kts 83°
2026-05-07 11:24 52.53276 6.17733 39049 ft 461 kts 83°
2026-05-07 11:24 52.54120 6.28176 39053 ft 461 kts 83°
2026-05-07 11:25 52.54955 6.38622 39043 ft 461 kts 83°
2026-05-07 11:25 52.55781 6.49070 39040 ft 461 kts 83°
2026-05-07 11:26 52.56598 6.59532 39040 ft 461 kts 83°
2026-05-07 11:26 52.57406 6.69995 39045 ft 461 kts 83°
2026-05-07 11:27 52.58205 6.80466 39039 ft 462 kts 83°
2026-05-07 11:27 52.58994 6.90936 39040 ft 462 kts 83°
2026-05-07 11:28 52.59775 7.01420 39044 ft 462 kts 84°
2026-05-07 11:28 52.60546 7.11898 39053 ft 462 kts 84°
2026-05-07 11:29 52.61308 7.22388 39051 ft 462 kts 84°
2026-05-07 11:29 52.62061 7.32877 39049 ft 462 kts 84°
2026-05-07 11:30 52.62804 7.43366 39047 ft 462 kts 84°
2026-05-07 11:30 52.63538 7.53868 39050 ft 462 kts 84°
2026-05-07 11:31 52.64263 7.64368 39053 ft 462 kts 84°
2026-05-07 11:31 52.64978 7.74864 39049 ft 462 kts 84°
2026-05-07 11:32 52.66034 7.90631 39061 ft 462 kts 84°
2026-05-07 11:33 52.66727 8.01150 39066 ft 462 kts 84°
2026-05-07 11:33 52.67410 8.11670 39071 ft 462 kts 84°
2026-05-07 11:34 52.68084 8.22188 39078 ft 462 kts 85°
2026-05-07 11:34 52.68749 8.32715 39074 ft 462 kts 85°
2026-05-07 11:35 52.69404 8.43247 39074 ft 462 kts 85°
2026-05-07 11:35 52.70050 8.53773 39061 ft 462 kts 85°
2026-05-07 11:36 52.70684 8.64237 39058 ft 462 kts 85°
2026-05-07 11:36 52.71310 8.74767 39057 ft 461 kts 85°
2026-05-07 11:37 52.71927 8.85297 39060 ft 461 kts 85°
2026-05-07 11:37 52.72534 8.95827 39057 ft 461 kts 85°
2026-05-07 11:38 52.73133 9.06371 39054 ft 461 kts 85°
2026-05-07 11:38 52.73723 9.16910 39051 ft 461 kts 86°
2026-05-07 11:39 52.74302 9.27443 39054 ft 461 kts 86°
2026-05-07 11:39 52.74872 9.37977 39053 ft 461 kts 86°
2026-05-07 11:40 52.75433 9.48515 39046 ft 461 kts 86°
2026-05-07 11:40 52.75985 9.59061 39050 ft 461 kts 86°
2026-05-07 11:41 52.76527 9.69596 39054 ft 461 kts 86°
2026-05-07 11:41 52.77060 9.80154 39046 ft 461 kts 86°
2026-05-07 11:42 52.77580 9.90631 39047 ft 461 kts 86°
2026-05-07 11:42 52.78095 10.01191 39050 ft 461 kts 86°
2026-05-07 11:43 52.78600 10.11755 39040 ft 461 kts 86°
2026-05-07 11:43 52.79096 10.22323 39048 ft 461 kts 86°
2026-05-07 11:44 52.79582 10.32880 39049 ft 461 kts 87°
2026-05-07 11:44 52.80059 10.43445 39051 ft 461 kts 87°
2026-05-07 11:45 52.80526 10.53998 39053 ft 461 kts 87°
2026-05-07 11:45 52.80984 10.64564 39036 ft 461 kts 87°
2026-05-07 11:46 52.81432 10.75126 39044 ft 461 kts 87°
2026-05-07 11:46 52.81871 10.85687 39047 ft 461 kts 87°
2026-05-07 11:47 52.82301 10.96252 39048 ft 461 kts 87°
2026-05-07 11:47 52.82723 11.06820 39046 ft 461 kts 88°
2026-05-07 11:48 52.83124 11.17393 39041 ft 461 kts 88°
2026-05-07 11:48 52.83486 11.27980 39047 ft 461 kts 88°
2026-05-07 11:49 52.83834 11.38560 39041 ft 461 kts 88°
2026-05-07 11:49 52.84178 11.49152 39041 ft 461 kts 88°
2026-05-07 11:50 52.84514 11.59755 39038 ft 462 kts 88°
2026-05-07 11:50 52.84841 11.70299 39023 ft 462 kts 89°
2026-05-07 11:51 52.85159 11.80916 39041 ft 462 kts 89°
2026-05-07 11:51 52.85469 11.91539 39032 ft 463 kts 89°
2026-05-07 11:52 52.85768 12.02172 39031 ft 463 kts 89°
2026-05-07 11:52 52.86059 12.12810 39036 ft 463 kts 89°
2026-05-07 11:53 52.86340 12.23442 39020 ft 463 kts 89°
2026-05-07 11:53 52.86612 12.34073 39034 ft 462 kts 89°
2026-05-07 11:54 52.86873 12.44708 39030 ft 462 kts 90°
2026-05-07 11:54 52.87126 12.55345 39033 ft 463 kts 90°
2026-05-07 11:55 52.87369 12.65983 39033 ft 463 kts 90°
2026-05-07 11:55 52.87602 12.76626 39031 ft 462 kts 90°
2026-05-07 11:56 52.87826 12.87261 39043 ft 462 kts 90°
2026-05-07 11:56 52.88040 12.97900 39035 ft 463 kts 90°
2026-05-07 11:57 52.88211 13.06740 39039 ft 462 kts 90°
2026-05-07 11:57 52.88439 13.19098 39041 ft 462 kts 90°
2026-05-07 11:58 52.88625 13.29720 39031 ft 461 kts 91°
2026-05-07 11:58 52.88773 13.38619 39038 ft 461 kts 91°
2026-05-07 11:59 52.88941 13.49229 39041 ft 461 kts 91°
2026-05-07 11:59 52.89100 13.59851 39038 ft 461 kts 91°
2026-05-07 12:00 52.89249 13.70468 39034 ft 461 kts 91°
2026-05-07 12:00 52.89388 13.81025 39034 ft 461 kts 92°
2026-05-07 12:01 52.89519 13.91715 39037 ft 462 kts 92°
2026-05-07 12:01 52.89639 14.02298 39052 ft 465 kts 92°
2026-05-07 12:02 52.89752 14.13059 39020 ft 468 kts 92°
2026-05-07 12:02 52.89858 14.23825 39026 ft 466 kts 92°
2026-05-07 12:03 52.90399 14.34501 39024 ft 468 kts 79°
2026-05-07 12:03 52.92065 14.44891 39024 ft 466 kts 77°
2026-05-07 12:04 52.93782 14.55226 39023 ft 464 kts 77°
2026-05-07 12:04 52.95439 14.65541 39027 ft 462 kts 78°
2026-05-07 12:05 52.97053 14.75851 39031 ft 461 kts 78°
2026-05-07 12:05 52.98650 14.86153 39030 ft 461 kts 78°
2026-05-07 12:06 53.00239 14.96473 39032 ft 462 kts 78°
2026-05-07 12:06 53.01824 15.06812 39031 ft 462 kts 78°
2026-05-07 12:07 53.03402 15.17178 39034 ft 463 kts 78°
2026-05-07 12:07 53.04977 15.27583 39028 ft 465 kts 78°
2026-05-07 12:08 53.06546 15.38019 39031 ft 466 kts 78°
2026-05-07 12:08 53.08107 15.48476 39017 ft 466 kts 78°
2026-05-07 12:09 53.09662 15.58953 39029 ft 467 kts 78°
2026-05-07 12:09 53.11208 15.69440 39029 ft 467 kts 78°
2026-05-07 12:10 53.12739 15.79887 39028 ft 468 kts 79°
2026-05-07 12:10 53.14271 15.90414 39023 ft 468 kts 79°
2026-05-07 12:11 53.15796 16.00945 39023 ft 467 kts 79°
2026-05-07 12:11 53.17311 16.11475 39023 ft 467 kts 79°
2026-05-07 12:12 53.18813 16.21989 39023 ft 466 kts 79°
2026-05-07 12:12 53.20303 16.32490 39022 ft 465 kts 79°
2026-05-07 12:13 53.21780 16.42979 39022 ft 464 kts 79°
2026-05-07 12:13 53.23248 16.53462 39020 ft 464 kts 79°
2026-05-07 12:14 53.24705 16.63945 39006 ft 463 kts 79°
2026-05-07 12:14 53.26144 16.74428 39022 ft 464 kts 79°
2026-05-07 12:15 53.27580 16.84943 39020 ft 464 kts 79°
2026-05-07 12:15 53.29007 16.95473 39035 ft 465 kts 80°
2026-05-07 12:16 53.30424 17.06028 39028 ft 466 kts 80°
2026-05-07 12:16 53.31836 17.16625 39019 ft 467 kts 80°
2026-05-07 12:17 53.33243 17.27256 39008 ft 468 kts 80°
2026-05-07 12:17 53.34625 17.37745 38987 ft 449 kts 80°
2026-05-07 12:17 53.35285 17.42772 38991 ft 436 kts 80°
2026-05-07 12:18 53.35923 17.47655 38988 ft 423 kts 80°
2026-05-07 12:18 53.36540 17.52393 38990 ft 410 kts 81°
2026-05-07 12:18 53.37135 17.56987 38985 ft 397 kts 81°
2026-05-07 12:19 53.38285 17.65946 39019 ft 397 kts 81°
2026-05-07 12:19 53.39457 17.75164 39032 ft 412 kts 81°
2026-05-07 12:20 53.40654 17.84599 39013 ft 419 kts 81°
2026-05-07 12:20 53.41257 17.89353 38878 ft 414 kts 81°
2026-05-07 12:20 53.41852 17.94057 38517 ft 412 kts 81°
2026-05-07 12:20 53.42446 17.98782 37742 ft 419 kts 82°
2026-05-07 12:21 53.43053 18.03655 36638 ft 435 kts 82°
2026-05-07 12:21 53.43680 18.08720 35486 ft 452 kts 82°
2026-05-07 12:21 53.44328 18.13963 34429 ft 466 kts 83°
2026-05-07 12:21 53.44992 18.19342 33465 ft 475 kts 83°
2026-05-07 12:22 53.45664 18.24770 32800 ft 474 kts 83°
2026-05-07 12:22 53.46331 18.30149 32357 ft 467 kts 83°
2026-05-07 12:22 53.46982 18.35410 31771 ft 456 kts 83°
2026-05-07 12:22 53.47617 18.40607 30789 ft 455 kts 84°
2026-05-07 12:23 53.48249 18.45820 29782 ft 456 kts 85°
2026-05-07 12:23 53.48873 18.51010 28893 ft 450 kts 84°
2026-05-07 12:23 53.49493 18.56110 28150 ft 442 kts 84°
2026-05-07 12:23 53.50095 18.61120 27434 ft 434 kts 84°
2026-05-07 12:24 53.50682 18.66055 26678 ft 428 kts 84°
2026-05-07 12:24 53.51260 18.70923 25931 ft 422 kts 83°
2026-05-07 12:24 53.51830 18.75733 25204 ft 417 kts 83°
2026-05-07 12:24 53.52337 18.80494 24505 ft 410 kts 85°
2026-05-07 12:25 53.52701 18.85219 23787 ft 406 kts 87°
2026-05-07 12:25 53.53005 18.89899 23032 ft 400 kts 87°
2026-05-07 12:25 53.53295 18.94521 22297 ft 394 kts 87°
2026-05-07 12:25 53.53583 18.99069 21557 ft 389 kts 88°
2026-05-07 12:26 53.53875 19.03553 20860 ft 384 kts 87°
2026-05-07 12:26 53.54168 19.08000 20398 ft 381 kts 87°
2026-05-07 12:26 53.54462 19.12419 19950 ft 379 kts 87°
2026-05-07 12:26 53.54755 19.16806 19513 ft 377 kts 87°
2026-05-07 12:27 53.55045 19.21169 19086 ft 374 kts 87°
2026-05-07 12:27 53.55332 19.25506 18664 ft 372 kts 87°
2026-05-07 12:27 53.55616 19.29815 18239 ft 370 kts 87°
2026-05-07 12:27 53.55897 19.34104 17760 ft 367 kts 87°
2026-05-07 12:28 53.56174 19.38352 17317 ft 364 kts 87°
2026-05-07 12:28 53.56447 19.42578 16883 ft 361 kts 87°
2026-05-07 12:28 53.56715 19.46750 16493 ft 357 kts 87°
2026-05-07 12:28 53.56978 19.50894 16076 ft 355 kts 86°
2026-05-07 12:29 53.57238 19.55008 15650 ft 352 kts 86°
2026-05-07 12:29 53.57495 19.59091 15255 ft 350 kts 86°
2026-05-07 12:29 53.57748 19.63147 14851 ft 348 kts 86°
2026-05-07 12:29 53.57996 19.67127 14452 ft 346 kts 86°
2026-05-07 12:30 53.58248 19.71194 14039 ft 344 kts 86°
2026-05-07 12:30 53.58492 19.75137 13631 ft 343 kts 86°
2026-05-07 12:30 53.58736 19.79115 13186 ft 341 kts 86°
2026-05-07 12:30 53.58976 19.83067 12767 ft 339 kts 86°
2026-05-07 12:31 53.58970 19.86990 12345 ft 333 kts 101°
2026-05-07 12:31 53.58348 19.90692 11943 ft 326 kts 116°
2026-05-07 12:31 53.57407 19.94137 11559 ft 323 kts 118°
2026-05-07 12:31 53.56459 19.97545 11152 ft 321 kts 118°
2026-05-07 12:32 53.55492 20.00912 10774 ft 318 kts 119°
2026-05-07 12:32 53.54508 20.04239 10386 ft 316 kts 119°
2026-05-07 12:32 53.53534 20.07521 10159 ft 309 kts 120°
2026-05-07 12:32 53.52595 20.10698 10018 ft 299 kts 120°
2026-05-07 12:33 53.50763 20.16900 9377 ft 295 kts 119°
2026-05-07 12:33 53.49855 20.19976 9042 ft 293 kts 119°
2026-05-07 12:33 53.48954 20.23029 8701 ft 291 kts 119°
2026-05-07 12:34 53.48057 20.26067 8385 ft 289 kts 119°
2026-05-07 12:34 53.47165 20.29086 8072 ft 288 kts 119°
2026-05-07 12:34 53.46278 20.32082 7760 ft 286 kts 119°
2026-05-07 12:34 53.45393 20.35065 7437 ft 285 kts 119°
2026-05-07 12:35 53.44509 20.38032 7112 ft 284 kts 119°
2026-05-07 12:35 53.43624 20.40988 6789 ft 283 kts 119°
2026-05-07 12:35 53.42741 20.43937 6461 ft 283 kts 119°
2026-05-07 12:35 53.41858 20.46879 6121 ft 282 kts 119°
2026-05-07 12:36 53.40977 20.49818 5779 ft 282 kts 119°
2026-05-07 12:36 53.40098 20.52745 5454 ft 281 kts 119°
2026-05-07 12:36 53.39223 20.55659 5131 ft 280 kts 119°
2026-05-07 12:36 53.38349 20.58562 4808 ft 279 kts 119°
2026-05-07 12:37 53.37476 20.61455 4472 ft 277 kts 119°
2026-05-07 12:37 53.36613 20.64313 4292 ft 270 kts 118°
2026-05-07 12:37 53.35673 20.66969 4159 ft 260 kts 128°
2026-05-07 12:37 53.34567 20.69291 4056 ft 251 kts 130°
2026-05-07 12:38 53.33533 20.71582 3958 ft 242 kts 126°
2026-05-07 12:38 53.32653 20.73883 3885 ft 228 kts 121°
2026-05-07 12:38 53.31924 20.76163 3752 ft 217 kts 117°
2026-05-07 12:38 53.31311 20.78388 3664 ft 205 kts 115°
2026-05-07 12:39 53.30784 20.80547 3573 ft 196 kts 108°
2026-05-07 12:39 53.30824 20.82695 3472 ft 183 kts 60°
2026-05-07 12:39 53.31719 20.83989 3362 ft 166 kts 22°
2026-05-07 12:39 53.32736 20.84776 3192 ft 162 kts 24°
2026-05-07 12:40 53.33755 20.85559 3065 ft 159 kts 20°
2026-05-07 12:40 53.34787 20.86221 2958 ft 158 kts 17°
2026-05-07 12:40 53.35809 20.86817 2863 ft 156 kts 17°
2026-05-07 12:40 53.36839 20.87400 2657 ft 156 kts 16°
2026-05-07 12:41 53.37855 20.87970 2466 ft 152 kts 16°
2026-05-07 12:41 53.38851 20.88530 2230 ft 150 kts 16°
2026-05-07 12:41 53.39824 20.89076 2043 ft 146 kts 16°
2026-05-07 12:41 53.40785 20.89615 1862 ft 145 kts 16°
2026-05-07 12:42 53.41700 20.90130 1658 ft 134 kts 16°
2026-05-07 12:42 53.42574 20.90619 1472 ft 131 kts 16°
2026-05-07 12:42 53.43419 20.91100 1262 ft 126 kts 16°
2026-05-07 12:42 53.44256 20.91564 1089 ft 128 kts 15°
2026-05-07 12:43 53.45111 20.92039 933 ft 129 kts 16°
2026-05-07 12:43 53.45969 20.92524 738 ft 130 kts 17°
2026-05-07 12:43 53.46815 20.93004 552 ft 129 kts 16°
2026-05-07 12:43 53.47664 20.93477 431 ft 118 kts 18°
2026-05-07 12:44 53.48231 20.93796 472 ft 58 kts 18°
2026-05-07 12:44 53.48510 20.93951 471 ft 29 kts 18°
2026-05-07 12:44 53.48629 20.94019 466 ft 25 kts 19°
2026-05-07 12:44 53.48730 20.94074 467 ft 12 kts 18°
2026-05-07 12:45 53.48779 20.94181 467 ft 13 kts 72°
2026-05-07 12:45 53.48776 20.94316 466 ft 11 kts 107°
2026-05-07 12:45 53.48786 20.94389 464 ft 1 kts 37°
2026-05-07 12:45 53.48792 20.94406 464 ft 3 kts 68°
2026-05-07 12:46 53.48786 20.94472 463 ft 6 kts 110°
2026-05-07 12:46 53.48777 20.94513 466 ft 1 kts 109°
2026-05-07 12:46 53.48777 20.94515 466 ft 0 kts 109°